Location: Hermaringen
(48.5952°N, 10.2585°E)
Time: 22:46:38
(UTC+00:00)

Altair - Pass Details

Date: 20 February 2026
Orbit: 1502 x 1682 km, 47.2° (Epoch: 10 March)

Event Time Altitude Azimuth Distance (km) Brightness Sun altitude
Exits shadow 04:17:01 24° 233° (SW) 2,708 8.3 -20.7°
Maximum altitude 04:22:59 67° 158° (SSE) 1,638 7.6 -19.7°
Drops below altitude 10° 04:32:20 10° 79° (ENE) 3,762 10.8 -18.1°
Sets 04:35:29 0° 77° (ENE) 4,771 11.7 -17.6°
